Theta_e
310 310 310 310 310 310 309 309 309 309 309 309 309 309 310 310 311 316 319 316 315 314 315 316 316 316 317 320 319 320 320 320 321 320 319 317 318 318 318 317 315 317 317 319 318
311 311 311 310 310 310 310 310 310 310 310 309 309 308 307 307 310 317 317 315 312 312 316 316 317 317 317 320 320 320 322 321 318 317 317 315 315 315 315 315 315 315 316 318 318
313 313 312 312 313 313 313 313 314 313 312 312 311 310 309 306 320 316 314 312 311 312 316 316 317 318 318 318 320 320 321 319 317 317 317 316 315 314 314 314 314 314 314 316 317
315 314 314 314 314 316 317 316 317 317 316 314 313 311 310 311 316 313 313 313 311 313 315 316 316 317 317 318 318 318 318 318 318 317 318 317 316 315 314 314 315 314 314 314 313
315 315 314 315 315 317 319 318 318 319 318 317 315 312 311 317 315 316 312 312 311 314 314 316 316 316 317 317 316 317 317 317 316 316 316 316 316 315 315 314 314 314 314 314 313
316 315 315 316 317 319 320 320 321 320 319 318 316 311 316 317 313 316 315 312 314 314 314 315 316 315 316 315 315 316 315 315 315 314 314 315 314 315 314 313 313 313 313 312 312
316 315 316 317 319 320 321 322 322 321 319 317 313 310 315 315 315 317 313 315 314 314 315 315 315 315 315 316 314 315 314 314 314 314 315 315 315 314 313 313 313 313 311 311 313
316 316 317 319 320 321 322 323 322 320 316 313 309 315 314 311 313 311 315 314 314 314 314 313 314 314 315 315 315 315 314 314 315 315 314 313 314 314 315 313 313 312 312 312 313
317 318 319 319 320 321 323 322 321 314 313 309 316 318 315 309 312 311 312 312 313 313 312 311 313 315 315 315 314 313 313 314 316 317 314 313 315 315 314 313 312 312 312 312 312
318 318 319 320 321 323 323 321 314 312 318 316 315 313 311 313 311 310 310 312 312 313 312 313 313 314 313 313 314 316 315 316 316 316 315 315 314 314 314 313 313 312 312 312 310
318 319 320 321 322 323 323 317 318 319 314 319 318 314 315 310 309 311 310 311 312 313 314 313 313 314 314 313 314 314 315 315 315 315 315 316 315 314 314 313 312 312 313 310 309
320 320 321 320 321 321 319 319 313 312 321 321 322 322 319 312 315 311 309 311 313 314 313 314 314 314 315 315 315 315 315 314 315 316 314 313 313 313 313 313 313 310 310 309 307
321 321 321 320 321 322 318 315 314 311 318 322 317 317 315 312 318 318 310 312 313 314 315 315 316 315 315 316 316 315 315 316 315 313 313 312 313 313 314 310 310 308 307 305 304
324 323 321 322 322 322 318 316 314 311 323 323 316 312 309 311 315 309 310 312 315 316 317 317 313 313 314 314 314 315 314 313 313 312 313 311 312 313 313 311 310 307 305 303 302
322 322 321 321 323 323 315 317 314 312 329 318 311 309 309 311 311 310 308 310 315 314 313 318 312 313 313 313 313 314 311 312 312 312 312 313 312 314 313 311 309 307 305 303 302
322 320 320 321 321 319 318 318 317 325 330 318 312 313 311 310 310 310 310 309 309 312 312 312 310 310 312 312 312 311 311 311 311 313 317 318 317 318 313 311 308 307 305 304 302
320 320 320 320 321 319 319 322 327 329 323 322 316 312 313 312 312 311 312 311 314 316 315 314 313 311 311 313 311 310 312 319 321 317 320 317 319 320 311 309 309 308 305 301 299
317 318 318 319 319 318 321 325 327 323 322 323 321 316 321 317 315 313 315 316 315 316 319 321 321 314 310 314 315 313 316 318 320 319 317 316 317 320 310 308 307 304 301 299 298
310 310 313 315 318 319 321 325 322 321 319 321 323 324 324 323 322 318 318 319 319 316 322 318 319 312 311 313 313 314 316 314 318 313 320 317 316 312 310 309 306 303 299 298 296
308 308 310 311 316 318 321 322 320 319 318 320 322 319 319 318 320 319 319 318 317 314 312 316 319 315 309 310 309 310 309 314 317 321 314 314 314 315 313 311 305 302 299 297 295
305 309 310 312 314 316 319 318 316 316 315 316 321 320 318 317 318 317 319 317 316 311 311 314 315 314 314 314 314 310 311 310 312 316 319 317 314 311 309 307 303 300 298 296 294
307 309 307 312 314 314 314 315 314 314 312 314 315 317 317 316 315 314 316 316 314 315 316 315 316 315 316 312 310 310 314 314 314 315 316 317 317 307 304 302 301 300 298 295 294
307 309 309 312 312 312 311 311 312 311 312 311 313 313 312 313 314 313 312 311 312 313 314 314 313 307 308 311 312 313 312 312 313 312 316 316 313 304 302 299 299 297 293 292 294
305 306 308 308 310 311 311 311 311 310 310 310 310 310 311 312 311 310 310 312 309 309 309 310 312 309 307 308 310 309 309 308 309 312 310 310 309 306 304 303 296 294 293 290 290
303 303 306 307 309 309 310 310 310 311 309 308 310 310 310 310 309 308 308 308 307 304 306 308 305 306 307 307 307 305 304 304 304 304 304 303 302 302 302 303 295 294 293 291 290
301 302 302 304 306 307 309 307 308 307 308 308 308 307 307 308 308 305 305 306 306 302 304 302 298 301 296 303 303 303 302 302 301 301 302 302 303 301 297 293 292 290 290 290 289
297 297 300 303 303 306 307 306 306 305 306 304 305 305 306 304 302 300 300 300 302 302 301 300 298 293 293 299 296 293 295 298 298 298 298 298 298 293 294 292 290 289 290 289 289
Wind_Speed
4 4 4 5 6 7 7 8 9 9 10 10 11 13 14 16 18 11 7 6 6 10 7 5 4 4 4 3 1 3 3 5 8 4 4 7 2 3 2 4 7 5 4 7 10
5 5 6 6 7 7 8 10 10 10 11 11 11 12 13 16 18 12 10 10 9 8 9 9 7 7 4 4 3 2 3 6 6 8 7 10 7 8 6 7 10 6 12 15 12
6 6 7 7 7 8 10 11 11 12 12 12 12 11 11 13 6 2 1 3 6 10 6 8 9 3 7 5 5 5 4 7 9 9 7 8 9 8 9 8 11 10 9 2 11
6 6 6 7 7 9 11 11 13 14 14 14 13 11 8 3 5 1 0 0 6 12 4 4 5 4 5 7 8 7 8 9 9 8 1 5 9 11 10 11 11 11 11 9 10
7 7 6 6 6 8 10 11 13 15 15 16 14 10 4 4 5 5 3 3 8 10 10 7 7 6 6 5 7 7 10 10 10 7 7 7 9 11 15 17 14 15 12 10 10
7 6 6 6 7 8 10 12 15 15 15 14 12 6 2 7 2 4 3 5 5 10 9 11 6 4 7 7 7 8 8 9 9 16 12 10 10 4 11 11 12 9 9 9 10
8 7 6 6 7 8 11 14 15 16 14 12 10 3 5 9 3 3 1 3 7 7 9 8 7 2 6 6 5 6 7 10 14 12 8 6 5 10 16 7 7 7 10 10 8
8 7 7 7 8 9 12 15 15 14 11 9 3 3 6 4 3 1 3 0 3 5 5 3 1 4 3 6 5 7 7 6 6 5 3 7 6 12 4 8 10 13 12 9 11
8 8 7 8 9 11 13 16 15 8 5 2 2 3 4 2 3 1 2 4 4 3 1 1 3 4 3 3 5 7 5 9 9 6 6 6 5 7 10 11 12 14 10 9 7
9 8 8 9 10 12 14 15 9 4 2 1 3 2 4 2 2 2 1 6 2 5 4 4 4 3 3 3 5 6 9 10 12 7 11 11 11 10 7 11 16 10 10 7 16
10 9 10 11 12 11 15 6 3 2 5 5 3 5 1 2 4 4 4 5 4 4 4 5 4 6 10 11 13 10 9 13 11 10 12 11 12 10 14 12 13 13 3 17 19
12 11 11 13 13 10 7 4 3 0 7 11 16 13 8 4 2 7 9 6 4 5 8 2 6 11 7 9 9 9 11 13 9 8 9 10 15 20 19 12 2 10 13 16 17
15 13 12 11 7 3 1 2 1 1 4 3 2 2 2 3 4 2 6 4 5 6 7 9 7 12 9 8 10 10 8 11 10 8 7 8 8 8 3 10 17 20 18 19 17
18 13 9 4 2 3 3 1 1 0 4 6 4 3 3 3 3 2 2 2 5 5 5 8 3 2 5 7 7 8 4 4 6 6 3 8 5 6 8 12 16 16 15 14 13
18 12 9 8 1 2 5 3 1 0 5 3 4 4 2 3 3 3 1 1 6 6 3 3 6 5 5 6 3 4 3 3 7 5 6 8 5 5 16 11 11 11 12 10 9
14 11 10 6 5 5 6 3 2 2 7 3 4 5 4 4 4 3 3 3 3 2 5 8 4 3 5 2 2 3 3 8 8 4 2 4 3 4 5 14 7 10 10 9 8
14 12 11 7 1 9 7 3 3 5 2 6 2 4 5 5 6 6 5 5 5 4 6 6 8 4 3 2 3 1 4 3 3 1 5 7 6 4 5 12 16 14 10 9 7
14 12 8 5 5 8 4 2 8 4 7 3 2 3 5 7 6 7 3 6 10 8 2 4 2 8 6 5 2 6 2 3 5 2 6 7 5 4 11 12 14 12 9 9 8
8 5 4 3 6 8 2 5 3 7 4 3 5 4 9 12 7 6 9 9 4 7 5 3 4 3 3 3 3 2 2 3 3 2 2 5 6 5 10 12 11 11 9 7 7
9 2 5 9 6 2 3 7 7 9 5 4 5 7 7 2 3 6 1 3 3 4 4 3 4 2 2 3 2 2 2 2 3 3 4 6 5 5 11 12 10 8 8 7 6
6 2 7 13 11 1 5 6 9 11 2 5 7 11 10 7 6 5 4 3 3 4 1 1 3 4 6 3 5 1 1 3 1 3 3 7 5 5 12 10 9 7 6 5 5
4 2 7 20 4 3 10 4 7 12 3 6 4 6 4 4 4 5 7 6 5 2 4 2 3 5 6 8 7 4 6 4 4 5 4 4 8 7 12 9 7 6 5 5 3
2 2 7 10 5 10 4 7 16 7 7 5 8 9 6 7 5 11 9 7 4 2 1 2 1 3 8 2 6 5 4 3 3 1 5 5 5 7 10 8 3 6 3 1 1
1 3 3 4 5 6 11 13 14 7 13 10 6 6 6 8 7 3 1 3 4 4 5 3 4 5 7 5 5 3 5 9 6 4 6 11 14 22 22 4 6 6 4 4 2
2 4 4 5 10 14 6 4 17 15 8 4 6 14 8 5 7 11 7 7 5 3 3 1 4 6 10 12 7 5 10 15 9 14 10 22 20 23 17 16 6 6 3 2 5
3 3 2 3 9 16 14 9 12 6 9 8 10 4 10 12 6 2 4 2 2 1 4 1 3 2 5 5 9 12 18 13 17 17 18 19 23 18 7 5 6 7 6 5 6
3 2 2 4 3 9 13 16 8 7 2 3 2 2 3 4 9 6 5 3 2 4 5 6 3 2 6 3 5 7 12 18 16 18 17 17 16 2 2 3 5 4 3 6 6
Wind_Direction
357 356 353 348 345 341 337 334 332 331 329 327 324 323 324 324 320 311 257 245 206 241 183 152 195 222 249 246 283 307 296 277 278 298 273 118 176 136 267 282 287 173 228 179 170
343 341 344 344 341 340 338 335 333 330 331 328 326 324 322 321 317 264 263 259 261 205 165 180 194 193 248 202 175 221 235 263 314 339 332 333 339 321 306 296 282 292 239 181 183
338 340 342 346 350 348 342 339 339 333 331 328 325 326 326 326 282 72 230 229 198 177 182 223 278 215 242 256 199 206 227 277 311 335 25 329 313 296 283 275 261 268 303 343 206
322 327 334 342 351 348 343 341 338 334 326 323 321 321 322 344 304 30 290 225 181 173 229 221 239 214 230 243 210 254 254 265 276 282 335 285 315 303 281 262 267 285 277 284 291
307 312 319 331 339 339 337 333 330 327 323 317 315 315 318 229 253 277 275 250 182 178 221 229 242 232 260 266 308 271 258 265 291 304 279 287 273 277 282 278 273 276 271 272 273
289 295 307 320 328 333 333 329 325 321 318 311 309 297 250 246 256 276 253 181 186 199 221 236 246 350 295 283 263 303 340 306 283 272 264 255 270 304 276 277 285 272 288 275 251
279 282 293 308 318 326 326 326 323 321 315 310 307 210 255 250 237 275 153 178 192 220 248 246 290 328 335 318 10 332 309 284 270 265 236 144 279 233 253 301 298 305 288 276 300
267 275 287 300 314 322 323 324 321 318 318 314 292 143 255 231 192 238 224 264 234 208 259 327 3 288 257 306 315 273 256 280 264 202 130 112 262 287 356 347 323 290 278 298 298
258 270 286 302 312 317 319 319 313 311 330 29 95 215 265 93 103 179 215 271 147 162 124 134 191 224 264 220 283 229 256 259 284 248 144 170 238 265 288 285 267 266 282 269 293
254 266 281 294 306 314 321 315 302 301 327 346 269 268 199 102 109 119 178 150 142 138 158 200 218 223 227 213 235 276 296 306 306 317 312 298 265 252 289 289 287 293 293 286 73
251 262 280 293 301 313 330 328 237 200 219 252 246 273 337 126 157 163 156 162 167 209 215 200 220 210 231 234 244 274 314 303 303 308 290 286 303 308 279 279 284 283 287 85 72
254 266 282 291 299 307 313 316 61 182 298 259 257 255 294 119 269 163 162 185 185 209 206 122 228 242 298 332 314 308 295 289 281 294 335 321 301 280 284 279 14 64 66 77 66
256 266 277 286 308 275 254 95 317 24 254 272 46 285 84 182 246 153 186 199 186 226 231 217 261 328 305 277 276 271 268 300 315 338 290 302 276 258 57 75 79 63 68 58 57
248 250 250 270 287 155 135 243 358 48 273 187 173 148 159 234 210 87 278 284 216 233 233 242 158 193 272 271 261 280 272 325 320 341 287 40 273 305 275 86 71 70 64 56 52
235 220 225 209 356 215 169 170 21 12 289 123 134 129 108 242 137 133 268 195 249 189 181 231 154 177 222 240 245 233 45 302 271 261 304 250 261 252 102 107 97 84 79 74 70
212 212 205 216 219 200 180 153 77 234 242 141 125 161 184 185 167 124 213 228 348 274 222 254 130 198 215 227 267 60 263 253 249 205 284 300 253 294 29 135 111 103 97 91 77
197 202 193 181 175 188 166 190 202 229 130 151 180 161 234 167 169 192 174 190 200 191 203 205 200 216 175 217 123 191 264 317 344 85 213 42 354 297 61 138 135 125 108 99 86
176 166 189 177 187 157 167 177 221 223 247 100 121 165 230 156 218 193 270 238 229 237 258 244 266 153 169 212 95 197 287 176 244 202 265 341 252 252 113 98 102 101 101 87 75
138 135 135 218 195 167 161 215 233 203 280 233 140 241 224 229 190 194 217 249 266 164 195 305 232 104 141 73 137 88 208 324 276 56 312 227 238 98 121 122 116 103 87 70 63
139 167 196 173 186 172 247 225 220 232 4 334 220 233 269 284 161 193 313 74 81 41 32 37 295 264 89 106 60 157 23 321 16 266 242 262 267 266 163 141 109 89 89 75 59
127 190 160 169 146 146 227 222 237 257 332 237 247 257 272 269 198 226 240 138 48 161 142 193 230 270 1 197 206 161 242 193 140 156 242 272 268 98 91 98 97 101 97 93 99
170 197 172 156 159 206 231 230 231 260 216 252 272 265 256 309 292 278 227 185 64 41 150 82 113 260 233 294 317 290 284 251 207 224 229 267 250 111 113 107 118 139 131 143 137
211 147 176 207 197 215 246 232 241 233 226 231 219 216 205 233 238 235 243 87 74 83 165 120 153 320 323 86 36 59 357 338 347 185 217 267 260 133 132 136 148 129 122 107 82
168 203 167 211 260 237 209 230 223 208 240 235 272 254 234 236 248 238 189 106 74 95 55 45 185 201 233 260 74 263 249 256 257 275 299 269 291 291 296 321 148 158 163 93 342
198 235 186 200 216 222 234 244 223 223 209 210 235 236 223 244 251 246 223 132 110 140 90 6 224 199 252 271 293 274 269 276 265 259 251 269 277 274 293 304 129 167 182 82 1
193 191 259 310 192 207 217 225 239 256 178 209 235 265 225 231 186 223 66 89 156 61 108 89 249 131 276 219 255 262 258 260 261 261 261 261 268 277 306 60 69 58 37 346 317
104 312 297 182 208 196 215 218 219 221 256 35 18 191 168 32 69 68 52 21 23 149 154 171 182 102 265 91 24 305 245 244 254 259 263 267 272 5 165 90 66 50 288 269 270